Location: Poughquag
(41.6090°N, 73.6820°W)
Time: 09:43:09
(UTC-04:00)

Altair - All Passes

Search period start: 07 September 2024 00:00
Search period end: 17 September 2024 00:00
Orbit: 1501 x 1682 km, 47.2° (Epoch: 06 September)

Date Brightness Start Highest point End Pass type
(mag) Time Alt. Az. Time Alt. Az. Time Alt. Az.
07 Sep - 02:53:44 10° SSE 02:59:36 17° ESE 03:05:31 10° E visible
07 Sep - 04:53:03 10° SW 05:02:50 59° SE 05:12:43 10° ENE visible
07 Sep - 06:57:31 10° WSW 07:07:43 74° NNW 07:17:51 10° ENE daylight
07 Sep - 09:03:28 10° WNW 09:13:37 66° N 09:23:31 10° E daylight
07 Sep - 11:08:51 10° WNW 11:18:58 79° SSW 11:28:43 10° SE daylight
07 Sep - 13:14:40 10° WNW 13:22:43 29° SW 13:30:33 10° S daylight
08 Sep - 02:29:25 10° SSE 02:34:32 15° ESE 02:39:40 10° E visible
08 Sep - 04:27:58 10° SSW 04:37:38 55° SE 04:47:26 10° ENE visible
08 Sep - 06:32:13 10° WSW 06:42:24 76° NNW 06:52:35 10° ENE daylight
08 Sep - 08:38:08 10° WNW 08:48:17 65° N 08:58:13 10° E daylight
08 Sep - 10:43:34 10° WNW 10:53:44 83° SSW 11:03:34 10° ESE daylight
08 Sep - 12:49:14 10° WNW 12:57:37 32° SW 13:05:45 10° S daylight
09 Sep - 02:05:21 10° SE 02:09:28 13° ESE 02:13:37 10° E visible
09 Sep - 04:02:55 10° SSW 04:12:27 51° SE 04:22:07 10° ENE visible
09 Sep - 06:06:55 10° WSW 06:17:06 79° NNW 06:27:19 10° ENE daylight
09 Sep - 08:12:48 10° WNW 08:22:57 64° N 08:32:54 10° E daylight
09 Sep - 10:18:17 10° WNW 10:28:29 87° SSW 10:38:22 10° ESE daylight
09 Sep - 12:23:49 10° WNW 12:32:30 35° SW 12:40:56 10° SSE daylight
10 Sep - 01:41:43 10° SE 01:44:24 11° ESE 01:47:06 10° ESE visible
10 Sep - 03:37:54 10° SSW 03:47:17 47° SE 03:56:48 10° ENE visible
10 Sep - 05:41:38 10° WSW 05:51:48 81° NNW 06:02:02 10° ENE visible
10 Sep - 07:47:28 10° W 07:57:36 64° N 08:07:35 10° E daylight
10 Sep - 09:53:00 10° WNW 10:03:14 89° NNE 10:13:09 10° ESE daylight
10 Sep - 11:58:26 10° WNW 12:07:22 38° SW 12:16:03 10° SSE daylight
11 Sep - 03:12:55 10° SSW 03:22:07 44° SE 03:31:29 10° ENE visible
11 Sep - 05:16:22 10° WSW 05:26:31 84° NNW 05:36:46 10° ENE visible
11 Sep - 07:22:08 10° W 07:32:15 64° N 07:42:17 10° E daylight
11 Sep - 09:27:42 10° WNW 09:37:57 86° NNE 09:47:55 10° ESE daylight
11 Sep - 11:33:04 10° WNW 11:42:14 41° SW 11:51:08 10° SSE daylight
12 Sep - 02:47:58 10° SSW 02:56:58 40° SE 03:06:08 10° ENE visible
12 Sep - 04:51:07 10° WSW 05:01:14 87° NNW 05:11:29 10° ENE visible
12 Sep - 06:56:49 10° W 07:06:55 64° N 07:16:58 10° E daylight
12 Sep - 09:02:25 10° WNW 09:12:41 83° NNE 09:22:40 10° ESE daylight
12 Sep - 11:07:43 10° WNW 11:17:05 45° SW 11:26:11 10° SSE daylight
13 Sep - 02:23:03 10° SSW 02:31:50 37° SE 02:40:46 10° ENE visible
13 Sep - 04:25:52 10° WSW 04:35:58 89° SSE 04:46:13 10° ENE visible
13 Sep - 06:31:29 10° W 06:41:34 64° N 06:51:38 10° ENE daylight
13 Sep - 08:37:08 10° WNW 08:47:24 80° NNE 08:57:25 10° ESE daylight
13 Sep - 10:42:23 10° WNW 10:51:56 49° SW 11:01:12 10° SSE daylight
13 Sep - 12:51:40 10° W 12:54:47 12° WSW 12:57:54 10° SW daylight
14 Sep - 01:58:11 10° SSW 02:06:41 34° SE 02:15:23 10° ENE visible
14 Sep - 04:00:39 10° WSW 04:10:42 85° SSE 04:20:56 10° ENE visible
14 Sep - 06:06:09 10° W 06:16:14 65° N 06:26:19 10° ENE visible
14 Sep - 08:11:50 10° WNW 08:22:05 77° NNE 08:32:09 10° ESE daylight
14 Sep - 10:17:04 10° WNW 10:26:45 52° SW 10:36:11 10° SSE daylight
14 Sep - 12:25:20 10° W 12:29:44 14° WSW 12:34:06 10° SSW daylight
15 Sep - 01:33:20 10° S 01:41:34 31° SE 01:49:58 10° ENE visible
15 Sep - 03:35:27 10° SW 03:45:27 82° SSE 03:55:40 10° ENE visible
15 Sep - 05:40:49 10° W 05:50:53 65° N 06:01:01 10° ENE visible
15 Sep - 07:46:34 10° WNW 07:56:47 75° NNE 08:06:51 10° ESE daylight
15 Sep - 09:51:46 10° WNW 10:01:34 56° SW 10:11:08 10° SE daylight
15 Sep - 11:59:21 10° W 12:04:41 16° WSW 12:09:57 10° SSW daylight
16 Sep - 01:08:33 10° S 01:16:27 28° SE 01:24:31 10° ENE visible
16 Sep - 03:10:16 10° SW 03:20:12 78° SSE 03:30:23 10° ENE visible
16 Sep - 05:15:29 10° W 05:25:34 66° N 05:35:42 10° ENE visible
16 Sep - 07:21:16 10° WNW 07:31:28 73° NNE 07:41:33 10° E daylight
16 Sep - 09:26:28 10° WNW 09:36:23 60° SW 09:46:04 10° SE daylight
16 Sep - 11:33:32 10° W 11:39:37 18° WSW 11:45:36 10° SSW daylight
